Location: Assche-ter-Heiden
(50.9174°N, 4.1574°E)
Time: 12:44:44
(UTC+00:00)

STARLINK-51 - Pass Details

Date: 20 January 2020
Orbit: 528 x 531 km, 53.0° (Epoch: 21 February)

Event Time Altitude Azimuth Distance (km) Brightness Sun altitude
Rises 06:39:31 0° 237° (WSW) 2,658 6.8 -8.7°
Reaches altitude 10° 06:41:44 10° 234° (SW) 1,772 5.9 -8.4°
Maximum altitude 06:45:42 63° 154° (SSE) 594 4.0 -7.8°
Drops below altitude 10° 06:49:42 10° 73° (ENE) 1,780 7.0 -7.3°
Sets 06:51:55 0° 70° (ENE) 2,672 7.9 -6.9°
